Weather History for Varna, Bulgaria

Change the Weather History Date:

Saturday, December 8, 2012

  Actual Average Record
Temperature  
Mean Temperature 40 °F -  
Max Temperature 50 °F 45 °F 66 °F (2010)
Min Temperature 29 °F 34 °F 17 °F (2001)
Degree Days  
Heating Degree Days 26    
Moisture  
Dew Point 35 °F    
Average Humidity 84    
Maximum Humidity 100    
Minimum Humidity 59    
Precipitation  
Precipitation 0.00 in 0.05 in - ()
Sea Level Pressure  
Sea Level Pressure 30.00 in    
Wind  
Wind Speed 6 mph ()    
Max Wind Speed 31 mph    
Max Gust Speed -    
Visibility 5.7 miles    
Events Fog    
Averages and records for this station are not official NWS values.
T = Trace of Precipitation, MM = Missing Value Source: Averaged Metar Reports

Daily Weather History Graph

Daily Weather History Graph

Search for Another Location

Airport:

Trip Planner

Search our weather history database for the weather conditions in past years. The results will help you decide how hot, cold, wet, or windy it might be!

Date:

Astronomy

Dec. 08, 2012 Rise Set
Actual Time 7:27 AM EET 4:32 PM EET
Civil Twilight 6:55 AM EET 5:05 PM EET
Nautical Twilight 6:19 AM EET 5:40 PM EET
Astronomical Twilight 5:45 AM EET 6:15 PM EET
Moon 1:22 AM EET (12/8) 12:58 PM EET (12/8)
Length of Visible Light 10h 09m
Length of Day
9h 05m
Waning Crescent, 31% of the Moon is Illuminated
Dec 8
Waning Crescent
Dec 13
New
Dec 20
First Quarter
Dec 28
Full
Jan 5
Last Quarter

Hourly Weather History & Observations

Time (EET) Temp. Windchill Dew Point Humidity Pressure Visibility Wind Dir Wind Speed Gust Speed Precip Events Conditions
12:00 AM 30.2 °F - 30.2 °F 100% 30.04 in 3.7 mi Variable 2.2 mph - N/A   Partly Cloudy
12:30 AM 30.2 °F - 30.2 °F 100% 30.04 in 3.7 mi Variable 2.2 mph - N/A   Unknown
1:00 AM 30.2 °F - 30.2 °F 100% 30.04 in 3.7 mi North 2.2 mph - N/A   Unknown
1:30 AM 30.2 °F 25.5 °F 30.2 °F 100% 30.04 in 3.7 mi NNW 4.5 mph - N/A   Unknown
2:00 AM 32 °F - 28 °F 79% 30.06 in 6 mi NW 4.5 mph - -  
2:00 AM 28.4 °F 23.4 °F 28.4 °F 100% 30.04 in 3.7 mi North 4.5 mph - N/A   Unknown
2:30 AM 28.4 °F - 28.4 °F 100% 30.04 in 5.0 mi NNE 2.2 mph - N/A   Scattered Clouds
3:00 AM 28.4 °F - 28.4 °F 100% 30.04 in 5.0 mi NE 2.2 mph - N/A   Mostly Cloudy
3:30 AM 28.4 °F - 28.4 °F 100% 30.04 in 5.0 mi Calm Calm - N/A   Mostly Cloudy
4:00 AM 28.4 °F - 28.4 °F 100% 30.04 in 5.0 mi NNE 2.2 mph - N/A   Mostly Cloudy
4:30 AM 28.4 °F - 28.4 °F 100% 30.04 in 5.0 mi Calm Calm - N/A   Partly Cloudy
5:00 AM 30 °F - 26 °F 81% 30.05 in 6 mi NNW 4.5 mph - -  
5:00 AM 28.4 °F - 28.4 °F 100% 30.04 in 5.0 mi Calm Calm - N/A   Unknown
5:30 AM 28.4 °F - 28.4 °F 100% 30.04 in 5.0 mi Variable 2.2 mph - N/A   Partly Cloudy
6:00 AM 26.6 °F - 26.6 °F 100% 30.04 in 5.0 mi NE 2.2 mph - N/A   Scattered Clouds
6:30 AM 28.4 °F - 28.4 °F 100% 30.04 in 5.0 mi North 2.2 mph - N/A   Mostly Cloudy
7:00 AM 30.2 °F - 30.2 °F 100% 30.04 in 5.0 mi NNW 2.2 mph - N/A   Mostly Cloudy
7:30 AM 30.2 °F 25.5 °F 30.2 °F 100% 30.04 in 5.0 mi West 4.5 mph - N/A   Mostly Cloudy
8:00 AM 35 °F - 32 °F 86% 30.06 in 4 mi NW 4.5 mph - - Fog Light Fog
8:00 AM 30.2 °F - 30.2 °F 100% 30.04 in 3.1 mi Variable 2.2 mph - N/A   Mostly Cloudy
8:30 AM 30.2 °F 25.5 °F 30.2 °F 100% 30.06 in 3.1 mi WSW 4.5 mph - N/A   Mostly Cloudy
9:00 AM 32.0 °F - 32.0 °F 100% 30.04 in 3.7 mi Calm Calm - N/A   Mostly Cloudy
9:30 AM 33.8 °F - 33.8 °F 100% 30.04 in 3.7 mi Variable 2.2 mph - N/A   Mostly Cloudy
10:00 AM 35.6 °F - 35.6 °F 100% 30.04 in 3.1 mi Variable 2.2 mph - N/A   Mostly Cloudy
10:30 AM 37.4 °F - 37.4 °F 100% 30.04 in 3.1 mi Variable 2.2 mph - N/A   Scattered Clouds
11:00 AM 45 °F - 38 °F 68% 30.07 in 5 mi SE 4.5 mph - -   Mist
11:00 AM 39.2 °F - 39.2 °F 100% 30.04 in 5.0 mi Calm Calm - N/A   Partly Cloudy
11:30 AM 42.8 °F - 39.2 °F 87% 30.04 in 5.0 mi Variable 2.2 mph - N/A   Partly Cloudy
12:00 PM 44.6 °F 42.3 °F 37.4 °F 76% 30.01 in 6.2 mi SE 4.5 mph - N/A   Partly Cloudy
12:30 PM 46.4 °F 42.0 °F 37.4 °F 71% 30.01 in 6.2 mi SSE 8.9 mph - N/A   Partly Cloudy
1:00 PM 46.4 °F 41.2 °F 37.4 °F 71% 29.98 in 6.2 mi SSE 11.2 mph - N/A   Partly Cloudy
1:30 PM 46.4 °F 41.2 °F 37.4 °F 71% 29.98 in 6.2 mi SSE 11.2 mph - N/A   Partly Cloudy
2:00 PM 47 °F - 38 °F 61% 30.01 in 12 mi SSE 13.4 mph - -   Mostly Cloudy
2:00 PM 46.4 °F 39.9 °F 37.4 °F 71% 29.98 in 6.2 mi SSE 15.7 mph - N/A   Partly Cloudy
2:30 PM 46.4 °F 41.2 °F 39.2 °F 76% 29.98 in 6.2 mi SSE 11.2 mph - N/A   Scattered Clouds
3:00 PM 46.4 °F 41.2 °F 39.2 °F 76% 29.98 in 6.2 mi SSE 11.2 mph - N/A   Scattered Clouds
3:30 PM 46.4 °F 41.2 °F 39.2 °F 76% 29.98 in 6.2 mi SE 11.2 mph - N/A   Partly Cloudy
4:00 PM 46.4 °F 41.2 °F 39.2 °F 76% 29.98 in 6.2 mi SE 11.2 mph - N/A   Scattered Clouds
4:30 PM 46.4 °F 41.2 °F 39.2 °F 76% 29.98 in 6.2 mi SSE 11.2 mph - N/A   Scattered Clouds
5:00 PM 49 °F - 40 °F 61% 29.99 in 12 mi SSE 22.4 mph - -   Mostly Cloudy
5:00 PM 46.4 °F 41.2 °F 39.2 °F 76% 29.98 in 6.2 mi SSE 11.2 mph - N/A   Scattered Clouds
5:30 PM 46.4 °F 41.2 °F 37.4 °F 71% 29.95 in 6.2 mi SE 11.2 mph - N/A   Partly Cloudy
6:00 PM 46.4 °F 40.5 °F 39.2 °F 76% 29.95 in 6.2 mi SE 13.4 mph - N/A   Scattered Clouds
6:30 PM 48.2 °F - 41.0 °F 76% 29.95 in 6.2 mi SE 13.4 mph - N/A   Mostly Cloudy
7:00 PM 48.2 °F - 41.0 °F 76% 29.95 in 6.2 mi SE 17.9 mph - N/A   Overcast
7:30 PM 48.2 °F - 41.0 °F 76% 29.95 in 6.2 mi SE 17.9 mph - N/A   Mostly Cloudy
8:00 PM 49 °F - 39 °F 59% 29.98 in 12 mi SSE 26.8 mph - -   Mostly Cloudy
8:00 PM 48.2 °F - 39.2 °F 71% 29.95 in 6.2 mi SE 20.1 mph - N/A   Mostly Cloudy
8:30 PM 48.2 °F - 39.2 °F 71% 29.95 in 6.2 mi SE 15.7 mph - N/A   Mostly Cloudy
9:00 PM 48.2 °F - 41.0 °F 76% 29.95 in 6.2 mi SE 17.9 mph - N/A   Scattered Clouds
9:30 PM 48.2 °F - 41.0 °F 76% 29.92 in 6.2 mi SE 20.1 mph - N/A   Scattered Clouds
10:00 PM 48.2 °F - 39.2 °F 71% 29.95 in 6.2 mi SE 17.9 mph - N/A   Scattered Clouds
10:30 PM 48.2 °F - 41.0 °F 76% 29.92 in 6.2 mi SE 20.1 mph - N/A   Mostly Cloudy
11:00 PM 50 °F - 40 °F 59% 29.96 in 12 mi SSE 31.3 mph - -   Mostly Cloudy
11:00 PM 48.2 °F - 41.0 °F 76% 29.92 in 6.2 mi SE 17.9 mph - N/A   Mostly Cloudy
11:30 PM 50.0 °F - 39.2 °F 66% 29.92 in 6.2 mi SE 17.9 mph - N/A   Mostly Cloudy